STARLINK-35608

Last updated on Tue Dec 16 2025 00:02:05 GMT+0000 (Coordinated Universal Time)

1 66508U 25263Z 25349.33335648 .00055613 00000+0 13298-2 0 9995 2 66508 43.0003 110.0721 0001396 258.6574 89.3491 15.40678977 6054
UTC large
Height (km)
Speed (km/s)
/
Latitude / Longitude
Inclination (degrees)
Orbital Period (minutes)
Azimuth
Elevation
Range (km)
Doppler Factor

Next 0 passes for location: London (51.5072 / 0.1276)

Sorry there are no passes over London.